Location: 5810 Zion Rd, Cleves, OH 45002, USA
(39.1922°N, 84.7113°W)
Time: 08:22:25
(UTC-05:00)

Vanguard 3 - Pass Details

Date: 18 December 2019
Orbit: 508 x 3263 km, 33.3° (Epoch: 17 January)

Event Time Altitude Azimuth Distance (km) Brightness Sun altitude
Rises 06:20:50 0° 235° (SW) 2,821 - -17.2°
Exits shadow 06:22:40 - 227° (SW) 2,149 9.0 -16.9°
Reaches altitude 10° 06:22:53 10° 226° (SW) 2,076 9.0 -16.8°
Maximum altitude 06:27:13 37° 158° (SSE) 1,314 8.5 -16.0°
Drops below altitude 10° 06:34:01 10° 94° (E) 3,279 11.5 -14.8°
Sets 06:38:04 0° 88° (E) 4,737 12.5 -14.0°
